KC7FQC Weather Reports


Display with metric or nautical units.
time (UTC)temp
F
wind
direction
speed
MPH
gust
MPH
rain 1hr
in
rain 24hr
in
rain mn
in
humidity
%
barometer
mb
20170820033109 95 200 0.0 2.0 0.00 0.00 0.00 26 1008.7
20170820030109 97 200 1.0 4.0 0.00 0.00 0.00 25 1008.5
20170820023039 98 200 2.0 9.0 0.00 0.00 0.00 24 1008.2
20170820020054 99 204 4.0 11.0 0.00 0.00 0.00 22 1008.2
20170820013109 100 223 4.0 11.0 0.00 0.00 0.00 22 1007.6
20170820010108 101 200 3.0 14.0 0.00 0.00 0.00 19 1007.6
20170820003108 102 236 5.0 13.0 0.00 0.00 0.00 19 1007.5
20170820000108 103 201 6.0 13.0 0.00 0.00 0.00 18 1007.7
20170819233108 103 225 1.0 14.0 0.00 0.00 0.00 17 1008.0
20170819230053 103 215 2.0 15.0 0.00 0.00 0.00 17 1008.7
20170819223108 104 242 9.0 15.0 0.00 0.00 0.00 16 1009.2
20170819220108 103 237 9.0 12.0 0.00 0.00 0.00 17 1009.5
20170819213108 104 245 7.0 13.0 0.00 0.00 0.00 15 1010.1
20170819210108 104 209 10.0 13.0 0.00 0.00 0.00 18 1010.7
20170819203108 102 227 7.0 11.0 0.00 0.00 0.00 19 1011.0
20170819200108 101 219 6.0 12.0 0.00 0.00 0.00 19 1011.4
20170819193108 102 228 7.0 12.0 0.00 0.00 0.00 19 1012.0
20170819190108 99 199 9.0 11.0 0.00 0.00 0.00 22 1011.9
20170819183038 98 250 0.0 14.0 0.00 0.00 0.00 23 1012.5
20170819180053 95 148 6.0 14.0 0.00 0.00 0.00 26 1012.8
20170819173038 94 188 4.0 13.0 0.00 0.00 0.00 27 1013.1
20170819170107 93 202 2.0 10.0 0.00 0.00 0.00 27 1013.2
20170819163037 92 202 6.0 8.0 0.00 0.00 0.00 26 1013.3
20170819160107 93 252 7.0 8.0 0.00 0.00 0.00 24 1013.1
20170819153107 90 247 0.0 4.0 0.00 0.00 0.00 22 1013.1
20170819150053 86 247 1.0 4.0 0.00 0.00 0.00 24 1012.8
20170819143107 82 247 1.0 5.0 0.00 0.00 0.00 27 1012.6
20170819140107 77 243 1.0 2.0 0.00 0.00 0.00 33 1012.4
20170819133107 74 243 0.0 2.0 0.00 0.00 0.00 38 1012.0
20170819130053 74 243 0.0 2.0 0.00 0.00 0.00 42 1011.5
20170819123107 75 243 0.0 1.0 0.00 0.00 0.00 39 1011.4
20170819120107 75 243 0.0 0.0 0.00 0.00 0.00 38 1011.2
20170819113107 76 243 0.0 1.0 0.00 0.00 0.00 38 1011.0
20170819110107 76 243 0.0 0.0 0.00 0.00 0.00 33 1010.9
20170819103107 77 243 0.0 2.0 0.00 0.00 0.00 35 1010.9
20170819100107 78 243 0.0 2.0 0.00 0.00 0.00 32 1010.7
20170819093107 79 243 0.0 3.0 0.00 0.00 0.00 29 1010.5
20170819090052 79 243 1.0 2.0 0.00 0.00 0.00 31 1010.4
20170819083107 79 243 0.0 1.0 0.00 0.00 0.00 34 1010.7
20170819080052 80 243 0.0 2.0 0.00 0.00 0.00 35 1010.9
20170819073107 81 243 0.0 0.0 0.00 0.00 0.00 35 1011.0
20170819070037 82 243 0.0 0.0 0.00 0.00 0.00 34 1011.0
20170819063106 83 243 0.0 0.0 0.00 0.00 0.00 33 1010.8
20170819060107 84 243 0.0 0.0 0.00 0.00 0.00 31 1010.9
20170819053106 85 243 0.0 2.0 0.00 0.00 0.00 29 1010.8
20170819050106 87 243 0.0 0.0 0.00 0.00 0.00 27 1010.8
20170819043106 90 243 0.0 0.0 0.00 0.00 0.00 24 1010.7
20170819040036 91 243 0.0 2.0 0.00 0.00 0.00 22 1010.6